Weather in Červený Kostelec

Czech Republic     50°28′36″N   16°05′42″E
temp.,
°C
wind,
m/s
gust,
m/s
humid.,
%
clouds,
%
prec.,
mm/h
press.,
hPa
HPBL,
m
26 july, mon
mon2623:00+17nne1191100 2.6 101112
02:00+16ssw1196100 4.2 101111
05:00+16s019887 1.6 101114
08:00+18sw239041 1.6 1012349
11:00+22sw3371100 0.0 1012725
14:00+25sw335922 0.1 10121248
17:00+26sw22535 0.1 10121446
20:00+22sse2273100 0.4 101240
27 july, tue
tue2723:00+16ne0192100 2.9 101315
02:00+16nw239195 3.1 101352
05:00+15s119189 0.0 101412
08:00+17ssw129068 0.1 1015251
11:00+23sw22686 0.0 1015827
14:00+25wsw33555 0.6 10141519
17:00+26sw3450100 0.2 10142006
20:00+21ssw117169 0.3 101411
28 july, wed
wed2823:00+18ene017948 0.0 101411
02:00+17nw1189100 1.3 101512
05:00+17e1188100 0.1 101411
08:00+20se008032 0.1 1014137
11:00+24ese116490 0.8 1013553
14:00+24e226423 3.6 10131135
17:00+20n4781100 4.4 1014380
20:00+18wsw11896 5.6 101427
29 july, thu
thu2923:00+15sw22945 0.0 101621
02:00+13sw22975 0.0 101622
05:00+13s119930 0.0 101621
08:00+15ssw249475 0.0 1016315
11:00+19sw467887 0.1 1016857
14:00+22wsw4663100 0.3 10151194
17:00+24wsw365669 0.0 10131240
20:00+21sse11700 0.0 101211
30 july, fri
fri3023:00+16ene008895 0.9 101211
02:00+16sw0193100 2.6 101111
05:00+16sw339598 0.7 101063
08:00+17ssw389647 0.9 1010373
11:00+22wsw71176100 0.1 10091220
14:00+23wsw71067100 1.3 10091626
17:00+23wsw5105559 0.1 10081892
20:00+18w41164100 0.1 1008318